STARLINK-11724, 64124

Orbit data source: Space-Track

STARLINK-11724, 64124 is a payload satellite owned by SpaceX/Seattle (US) in LEO that was launched on Sat, 24 May 2025 UTC via an FALCON 9 launch vehicle from the Air Force Eastern Test Range (AFETR). Payload-class satellites include a variety of spacecraft equipped with specific instruments for various scientific and technological missions. These include communications satellites like Starlink; space stations such as the ISS; scientific satellites like the Hubble; Earth observation satellites from companies like Planet Labs, Umbra, and HawkEye 360; GPS; miniature CubeSats for education and research; and military/defense satellites.

Loading next visibility...
Identifier
64124, 2025-111B
Orbit
LEO
Country
Flag of USUS
Related business
Manufacturer
SpaceX/Seattle
Mission
Operational Commercial Communications
Bus & Motor
STARLINK V2MD, Unknown motor
Mass
960 kg wet, ~910 kg dry
Launch date (UTC)
2025-05-24 (1 year ago)
Launch vehicle
FALCON 9
Launch site
Air Force Eastern Test Range (AFETR)
Object type
Payload
Rocket body
Debris
Shape & HBR
Box + 2 Pan, 18.1 m
Radar Cross Section
36.964 m², Large (>1 m²)

Expand to show TLE details & history
Last TLE update: 21 hours ago

TLE from 21 hours ago
0 STARLINK-11724
1 64124U 25111B   26170.95121421  .00176596  00000-0  13500-2 0  9993
2 64124  43.0007  77.3236 0003422 297.5635  62.4885 15.70848609 62727
Epoch: 2026-06-19T22:49Z
TLE epoch observation values (Epoch: 2026-06-19T22:49:44.907Z)
Latitude
-0.00002°
Longitude
-173.28636°
Altitude
355.178 km
Speed
7.699 km/s
True Right ascension
05h 09m 17s
True Declination
0° 00' 00"
Sunlit
Object was in daylight at epoch
Visualization orbit readout
Latitude
Unknown
Longitude
Unknown
Altitude
Unknown
Speed
Unknown
Apparent Right ascension
Unknown
Apparent Declination
Unknown
Sunlit
N/A
Visualization observer readout
Local Sidereal Time
07:12:26
Azimuth
Unknown
Elevation
Unknown
Doppler factor
Unknown
Orbital elements
Apogee altitude
360.757 km
Perigee altitude
356.147 km
Semi-major axis
6,736.589 km
Eccentricity
0.00034
Inclination
43.0007°
RAAN
77.3236°
Arg. of periapsis
297.5635°
True anomaly
62.52329°
Mean anomaly
62.4885°
Eccentric anomaly
62.50589°
Mean motion
3.92539 °/min
Orbital period
91.71 mins
BSTAR
0.00135
Loading maneuver chart data...
Computing Atmospheric mass density...
Loading historical data...
Loading historical data...
Loading historical data...
Loading historical data...
Loading historical data...
Loading historical data...
Loading historical data...

Documentation

Showing up to 5 results
|